Overview Statistics Trail Chart Weather Telemetry Raw packets
 

This is the latest recevied weather packets stored in our database for station/object 4S6DRJ-13. If no packets are shown the sender has not sent any weather packets the latest 10 day(s).

<< 519 520 521 522 523 524 525 >>
Time Temp. Humidity Pressure Rain* Wind** Luminosity Snow
1787654183 28.33° C 79% 1008.6 hPa 0 mm 1.34 m/s, 348° 104 W/m² -
1787654122 28.33° C 79% 1008.7 hPa 0 mm 1.34 m/s, 235° 107 W/m² -
1787654061 28.33° C 79% 1008.6 hPa 0 mm 1.79 m/s, 233° 111 W/m² -
1787654000 28.33° C 79% 1008.7 hPa 0 mm 0.45 m/s, 251° 115 W/m² -
1787653938 28.33° C 79% 1008.5 hPa 0 mm 0.89 m/s, 109° 117 W/m² -
1787653877 28.33° C 79% 1008.6 hPa 0 mm 0.89 m/s, 278° 121 W/m² -
1787653816 28.33° C 79% 1008.6 hPa 0 mm 0.89 m/s, 236° 125 W/m² -
1787653756 28.33° C 79% 1008.8 hPa 0 mm 0.89 m/s, 231° 129 W/m² -
1787653694 28.33° C 80% 1008.7 hPa 0 mm 1.79 m/s, 317° 133 W/m² -
1787653633 28.33° C 80% 1008.7 hPa 0 mm 0.45 m/s, 206° 137 W/m² -
1787653573 28.33° C 80% 1008.7 hPa 0 mm 1.34 m/s, 289° 140 W/m² -
1787653511 28.33° C 79% 1008.6 hPa 0 mm 1.34 m/s, 227° 143 W/m² -
1787653450 28.33° C 80% 1008.7 hPa 0 mm 1.34 m/s, 203° 146 W/m² -
1787653389 28.33° C 80% 1008.6 hPa 0 mm 1.34 m/s, 269° 149 W/m² -
1787653328 28.33° C 80% 1008.6 hPa 0 mm 1.79 m/s, 59° 152 W/m² -
1787653268 28.33° C 80% 1008.7 hPa 0 mm 1.79 m/s, 335° 155 W/m² -
1787653207 28.33° C 81% 1008.8 hPa 0 mm 1.79 m/s, 302° 158 W/m² -
1787653146 28.33° C 81% 1008.6 hPa 0 mm 1.34 m/s, 297° 162 W/m² -
1787653085 28.33° C 81% 1008.6 hPa 0 mm 1.79 m/s, 257° 166 W/m² -
1787653025 28.33° C 80% 1008.8 hPa 0 mm 1.79 m/s, 237° 167 W/m² -
1787652963 28.33° C 81% 1008.6 hPa 0 mm 2.24 m/s, 199° 165 W/m² -
1787652903 28.89° C 81% 1008.8 hPa 0 mm 0.89 m/s, 278° 171 W/m² -
1787652841 28.89° C 81% 1008.6 hPa 0 mm 1.34 m/s, 209° 173 W/m² -
1787652781 28.89° C 81% 1008.8 hPa 0 mm 2.24 m/s, 265° 172 W/m² -
1787652719 28.89° C 80% 1008.8 hPa 0 mm 1.79 m/s, 128° 175 W/m² -

* Rain latest hour (hover to see other rain measurements)
** Current wind speed in m/s (hover to see current wind gust speed)